Flag for Germany Weather past 2 weeks in Königs Wusterhausen, Brandenburg, Germany

37 °F


Feels Like: 30 °F
Forecast: 34 / 41 °F
Wind: 12 mph from South

Location: Berlin-Schoenefeld

Current Time: Nov 25, 2015 at 11:16:04 AM

Latest Report: Nov 25, 2015 at 10:20 AM

Visibility: N/A

Pressure: 29.68 "Hg

Humidity: 81%

Dew point: 32 °F

Location of Königs WusterhausenLocation

Historic Weather in Königs Wusterhausen — Graph


Königs Wusterhausen temperature yesterday

Maximum temperature yesterday: 37 °F (at 11:50 AM)
Minimum temperature yesterday: 28 °F (at 12:20 AM)
Average temperature yesterday: 33 °F

Past Weeks' High & Low Weather Summary

High59 °F (Nov 10, 10:20 AM)100% (Nov 11, 8:50 AM)30.27 "Hg (Nov 11, 8:50 AM)
Low27 °F (Nov 23, 10:50 PM)62% (Nov 14, 1:50 PM)29.33 "Hg (Nov 21, 1:50 PM)
Average47 °F85%29.85 "Hg
* Reported Nov 10 10:20 AM — Nov 25 10:20 AM, Königs Wusterhausen, Weather by CustomWeather, © 2015

Note: Actual official high and low records may vary slightly from our data, if they occured in-between our weather recording intervals... More about our weather records


Königs Wusterhausen weather history for previous 24 hours

Time TempWeatherWind HumidityBarometerVisibility
10:20 AM
Wed, Nov 25
37 °FOvercast.12 mph81%29.68 "HgN/A
9:50 AM37 °FLight rain. Overcast.10 mph81%29.68 "HgN/A
9:20 AM36 °FOvercast.9 mph81%29.68 "HgN/A
8:50 AM36 °FOvercast.8 mph81%29.68 "HgN/A
8:20 AM36 °FOvercast.7 mph81%29.71 "HgN/A
7:50 AM36 °FOvercast.7 mph81%29.71 "HgN/A
7:20 AM36 °FOvercast.8 mph81%29.71 "HgN/A
6:50 AM36 °FOvercast.8 mph81%29.71 "HgN/A
6:20 AM36 °FPassing clouds.9 mph81%29.71 "HgN/A
5:50 AM36 °FOvercast.9 mph81%29.71 "HgN/A
5:20 AM36 °FOvercast.8 mph81%29.74 "HgN/A
4:20 AM36 °FOvercast.8 mph75%29.74 "HgN/A
3:50 AM36 °FOvercast.8 mph75%29.74 "HgN/A
3:20 AM34 °FPassing clouds.8 mph81%29.77 "HgN/A
2:50 AM36 °FClear.8 mph75%29.77 "Hg10 mi
2:20 AM34 °FClear.7 mph81%29.80 "Hg10 mi
1:20 AM34 °FPassing clouds.9 mph81%29.80 "HgN/A
12:50 AM36 °FPassing clouds.10 mph75%29.83 "HgN/A
12:20 AM36 °FPartly cloudy.12 mph75%29.83 "HgN/A
11:50 PM
Tue, Nov 24
36 °FPassing clouds.10 mph75%29.86 "HgN/A
11:20 PM36 °FPassing clouds.12 mph75%29.86 "HgN/A
10:50 PM34 °FClear.12 mph81%29.89 "Hg10 mi
10:20 PM34 °FClear.12 mph81%29.89 "Hg10 mi
9:50 PM34 °FClear.12 mph81%29.92 "Hg10 mi
9:20 PM34 °FClear.10 mph81%29.92 "Hg10 mi
8:50 PM34 °FClear.10 mph81%29.95 "Hg10 mi
8:20 PM34 °FClear.10 mph81%29.95 "Hg10 mi
7:50 PM34 °FClear.12 mph81%29.95 "Hg10 mi
7:20 PM36 °FClear.12 mph75%29.98 "Hg10 mi
6:50 PM36 °FClear.12 mph81%29.98 "Hg10 mi
6:20 PM36 °FClear.10 mph81%29.98 "Hg10 mi
5:50 PM36 °FClear.9 mph81%30.01 "Hg10 mi
5:20 PM36 °FClear.10 mph81%30.01 "Hg10 mi
4:50 PM36 °FClear.8 mph81%30.01 "Hg10 mi
4:20 PM36 °FClear.8 mph81%30.04 "Hg10 mi
3:50 PM36 °FSunny.12 mph81%30.04 "Hg10 mi
3:20 PM37 °FSunny.14 mph81%30.07 "Hg10 mi
2:50 PM37 °FSunny.14 mph81%30.07 "Hg10 mi
2:20 PM37 °FPartly sunny.15 mph81%30.07 "HgN/A
1:50 PM37 °FPartly sunny.15 mph81%30.09 "HgN/A
1:20 PM37 °FSunny.14 mph81%30.09 "Hg10 mi
12:50 PM37 °FSunny.14 mph81%30.09 "Hg10 mi
12:20 PM37 °FSunny.15 mph81%30.12 "Hg10 mi
11:50 AM37 °FSunny.14 mph81%30.12 "Hg10 mi
11:20 AM36 °FPartly sunny.13 mph87%30.15 "HgN/A
Weather by CustomWeather, © 2015

See weather overviewHow to use our weather pages